Location: Proctor
(47.8934°N, 114.3048°W)
Time: 11:08:45
(UTC+00:00)

Transit 4A - Pass Details

Date: 25 June 2024
Orbit: 870 x 973 km, 66.8° (Epoch: 13 July)

Event Time Altitude Azimuth Distance (km) Brightness Sun altitude
Rises 05:19:00 0° 205° (SSW) 3,460 10.6 -12.0°
Reaches altitude 10° 05:21:28 10° 204° (SSW) 2,518 9.8 -12.2°
Maximum altitude 05:27:15 73° 121° (ESE) 913 7.7 -12.8°
Drops below altitude 10° 05:33:04 10° 38° (NE) 2,530 10.5 -13.2°
Sets 05:35:34 0° 36° (NE) 3,478 11.2 -13.5°
